EW8711 Weather Reports


time (UTC)temp
C
wind
direction
speed
KPH
gust
KPH
rain 1hr
cm
rain 24hr
cm
rain mn
cm
humidity
%
barometer
mb
20210414110552 6 238 0.0 0.0 0.00 0.00 0.00 97 1019.5
20210414110037 6 239 0.0 1.6 0.00 0.00 0.00 97 1019.7
20210414104519 6 236 0.0 0.0 0.00 0.00 0.00 97 1019.6
20210414103519 6 239 0.0 0.0 0.00 0.00 0.00 97 1019.5
20210414102824 6 239 0.0 0.0 0.00 0.00 0.00 97 1019.1
20210414101450 6 242 0.0 0.0 0.00 0.00 0.00 97 1019.1
20210414100444 6 242 0.0 0.0 0.00 0.00 0.00 96 1018.9
20210414095820 6 242 0.0 0.0 0.00 0.00 0.00 96 1018.6
20210414094433 6 242 0.0 0.0 0.00 0.00 0.00 96 1018.6
20210414093428 6 242 0.0 0.0 0.00 0.00 0.00 96 1018.8
20210414092756 6 242 0.0 0.0 0.00 0.00 0.00 95 1018.3
20210414091419 6 242 0.0 0.0 0.00 0.00 0.00 95 1018.5
20210414090416 6 242 0.0 0.0 0.00 0.00 0.00 95 1018.6
20210414085754 6 242 0.0 0.0 0.00 0.00 0.00 94 1018.6
20210414084418 7 242 0.0 0.0 0.00 0.00 0.00 94 1018.7
20210414083358 7 239 0.0 0.0 0.00 0.00 0.00 94 1018.6
20210414082659 7 237 0.0 0.0 0.00 0.00 0.00 94 1018.6
20210414082030 7 236 0.0 0.0 0.00 0.00 0.00 94 1018.8
20210414080343 7 240 0.0 0.0 0.00 0.00 0.00 94 1018.7
20210414075717 7 240 0.0 0.0 0.00 0.00 0.00 94 1018.7
20210414074333 6 250 0.0 0.0 0.00 0.00 0.00 94 1019.0
20210414073331 6 241 0.0 0.0 0.00 0.00 0.00 93 1018.7
20210414072758 6 240 0.0 0.0 0.00 0.00 0.00 93 1018.8
20210414071323 6 240 0.0 0.0 0.00 0.00 0.00 93 1018.9
20210414070314 6 240 0.0 0.0 0.00 0.00 0.00 93 1019.0
20210414065830 6 240 0.0 0.0 0.00 0.00 0.00 93 1018.8
20210414064303 7 240 0.0 0.0 0.00 0.00 0.00 93 1018.8
20210414063258 6 240 0.0 0.0 0.00 0.00 0.00 93 1018.9
20210414062541 6 231 0.0 0.0 0.00 0.00 0.00 93 1019.0
20210414061249 6 242 0.0 0.0 0.00 0.00 0.00 92 1019.2
20210414060356 7 237 0.0 0.0 0.00 0.00 0.00 92 1019.0
20210414055722 7 232 0.0 0.0 0.00 0.00 0.00 92 1018.8
20210414054237 7 232 0.0 0.0 0.00 0.00 0.00 92 1019.1
20210414053236 7 229 0.0 0.0 0.00 0.00 0.00 91 1019.1
20210414052740 7 229 0.0 0.0 0.00 0.00 0.00 91 1018.9
20210414051228 7 229 0.0 0.0 0.00 0.00 0.00 91 1019.1
20210414050342 7 232 0.0 0.0 0.00 0.00 0.00 90 1019.0
20210414045922 7 243 0.0 0.0 0.00 0.00 0.00 90 1019.4
20210414044148 7 239 0.0 1.6 0.00 0.00 0.00 90 1019.2
20210414043138 7 238 0.0 1.6 0.00 0.03 0.00 89 1019.3
20210414042601 7 236 0.0 4.8 0.00 0.03 0.00 89 1019.2
20210414041136 8 234 1.6 1.6 0.00 0.03 0.00 89 1019.3
20210414040355 7 218 0.0 0.0 0.00 0.05 0.00 88 1019.0
20210414035619 8 229 0.0 0.0 0.00 0.05 0.05 87 1019.0
20210414034116 8 224 0.0 1.6 0.00 0.05 0.05 86 1019.1
20210414033420 8 209 0.0 1.6 0.00 0.05 0.05 86 1019.4
20210414032916 8 232 0.0 0.0 0.00 0.05 0.05 86 1019.3
20210414031059 8 226 0.0 1.6 0.00 0.05 0.05 85 1019.4
20210414030137 8 234 0.0 4.8 0.00 0.05 0.05 85 1019.3
20210414025554 8 225 0.0 1.6 0.00 0.05 0.05 84 1019.4
20210414024045 8 226 0.0 1.6 0.00 0.05 0.05 84 1019.2
20210414023135 8 227 0.0 1.6 0.00 0.05 0.05 83 1019.2
20210414022541 9 236 1.6 4.8 0.00 0.05 0.05 82 1019.1
20210414021049 9 223 0.0 0.0 0.00 0.05 0.05 81 1019.1
20210414015443 10 221 1.6 1.6 0.00 0.05 0.05 80 1019.2
20210414014028 10 227 0.0 4.8 0.00 0.05 0.05 78 1019.2
20210414012134 10 222 1.6 4.8 0.00 0.05 0.05 79 1018.9
20210414010956 11 223 0.0 4.8 0.00 0.05 0.05 77 1018.7
20210414005648 11 236 0.0 0.0 0.00 0.05 0.05 65 1018.8
20210414003942 11 236 0.0 0.0 0.00 0.05 0.05 62 1018.3
20210414002108 12 236 0.0 0.0 0.00 0.05 0.05 62 1018.4
20210414000927 12 236 0.0 0.0 0.00 0.05 0.05 62 1018.3
20210413235450 13 236 0.0 0.0 0.00 0.05 0.05 55 1018.2
20210413233931 14 236 0.0 0.0 0.00 0.05 0.05 50 1017.9
20210413232121 15 236 0.0 0.0 0.00 0.05 0.05 47 1017.9
20210413230857 15 237 0.0 0.0 0.00 0.05 0.05 47 1017.7
20210413230212 16 236 0.0 0.0 0.00 0.05 0.05 46 1017.7
20210413225355 16 234 0.0 0.0 0.00 0.05 0.05 47 1017.7
20210413223852 16 233 0.0 1.6 0.00 0.05 0.05 46 1017.5
20210413223043 16 222 0.0 0.0 0.00 0.05 0.05 46 1017.5
20210413222037 16 214 0.0 1.6 0.00 0.05 0.05 45 1017.5
20210413220829 17 182 4.8 6.4 0.00 0.05 0.05 41 1017.4
20210413220200 17 293 0.0 4.8 0.00 0.05 0.05 44 1017.6
20210413215037 17 210 1.6 4.8 0.00 0.05 0.05 41 1017.6
20210413213820 17 241 4.8 6.4 0.00 0.05 0.05 42 1017.4
20210413212949 18 126 1.6 6.4 0.00 0.05 0.05 41 1017.4
20210413211859 17 249 0.0 9.7 0.00 0.05 0.05 40 1017.6
20210413210758 18 227 0.0 4.8 0.00 0.05 0.05 39 1017.5
20210413205905 17 281 0.0 6.4 0.00 0.05 0.05 41 1017.7
20210413204821 17 300 3.2 6.4 0.00 0.05 0.05 41 1017.7
20210413203857 18 235 6.4 9.7 0.00 0.05 0.05 40 1017.9
20210413203036 17 18 4.8 12.9 0.00 0.05 0.05 41 1017.8
20210413201820 18 202 4.8 6.4 0.00 0.05 0.05 39 1017.7
20210413200732 17 265 9.7 14.5 0.00 0.05 0.05 40 1018.0
20210413200118 17 244 1.6 12.9 0.00 0.05 0.05 40 1017.8
20210413194716 17 227 3.2 6.4 0.00 0.05 0.05 41 1017.7
20210413193710 17 247 0.0 14.5 0.00 0.05 0.05 44 1017.9
20210413193043 17 251 0.0 6.4 0.00 0.05 0.05 43 1017.9
20210413191732 17 263 0.0 9.7 0.00 0.05 0.05 43 1017.7
20210413190714 18 231 0.0 6.4 0.00 0.05 0.05 42 1018.1
20210413185938 16 269 1.6 9.7 0.00 0.05 0.05 45 1018.2
20210413184645 16 213 1.6 9.7 0.00 0.05 0.05 45 1018.1
20210413183630 17 226 0.0 9.7 0.00 0.05 0.05 47 1018.4
20210413182916 16 319 1.6 9.7 0.00 0.05 0.05 45 1018.3
20210413181624 15 274 3.2 12.9 0.00 0.05 0.05 48 1018.5
20210413180621 16 247 6.4 9.7 0.00 0.05 0.05 45 1018.6
20210413175839 15 318 1.6 14.5 0.00 0.05 0.05 44 1018.7
20210413174615 16 127 0.0 14.5 0.00 0.05 0.05 48 1018.4
20210413173601 15 24 6.4 12.9 0.00 0.05 0.05 49 1018.5
20210413172926 15 177 3.2 14.5 0.00 0.05 0.05 47 1018.6
20210413171556 15 349 4.8 12.9 0.00 0.05 0.05 50 1018.7
20210413170546 14 342 1.6 9.7 0.00 0.05 0.05 52 1018.7
20210413165918 14 235 1.6 9.7 0.00 0.05 0.05 54 1018.5
20210413164545 13 316 1.6 12.9 0.00 0.05 0.05 55 1018.8
20210413163532 13 356 1.6 12.9 0.00 0.05 0.05 58 1019.1
20210413163027 13 230 1.6 6.4 0.00 0.05 0.05 56 1018.9
20210413161523 13 69 1.6 6.4 0.00 0.05 0.05 60 1019.0
20210413160531 12 41 1.6 9.7 0.00 0.05 0.05 65 1019.3
20210413155954 12 156 1.6 9.7 0.00 0.05 0.05 63 1019.3
20210413154521 13 263 4.8 9.7 0.00 0.05 0.05 65 1019.2
20210413153506 12 262 3.2 6.4 0.00 0.05 0.05 68 1019.5
20210413152924 11 20 1.6 6.4 0.00 0.05 0.05 73 1019.3
20210413151452 11 292 4.8 9.7 0.00 0.05 0.05 74 1019.5
20210413150235 10 256 0.0 6.4 0.00 0.05 0.05 78 1019.3
20210413144435 10 241 1.6 4.8 0.00 0.05 0.05 78 1019.2
20210413143431 10 233 0.0 9.7 0.00 0.05 0.05 80 1019.3
20210413142930 10 27 1.6 6.4 0.00 0.05 0.05 82 1019.3
20210413141421 10 357 3.2 6.4 0.00 0.05 0.05 83 1019.1
20210413140416 9 67 3.2 6.4 0.00 0.05 0.05 82 1019.0
20210413135958 9 40 3.2 6.4 0.00 0.05 0.05 85 1018.8
20210413134415 10 0 0.0 6.4 0.00 0.05 0.05 86 1018.8
20210413133350 9 214 0.0 4.8 0.00 0.05 0.05 90 1018.6
20210413132908 9 303 1.6 4.8 0.00 0.05 0.05 92 1018.5
20210413131340 8 270 0.0 6.4 0.00 0.05 0.05 96 1018.3
20210413130345 8 302 0.0 4.8 0.00 0.05 0.05 97 1018.4
20210413125958 7 32 4.8 4.8 0.00 0.05 0.05 98 1018.3
20210413124332 7 273 0.0 1.6 0.00 0.05 0.05 98 1018.1
20210413123322 7 285 1.6 1.6 0.00 0.05 0.05 98 1018.2
20210413123107 7 228 0.0 0.0 0.00 0.05 0.05 98 1017.9
20210413121312 7 230 0.0 0.0 0.00 0.05 0.05 98 1017.8
20210413120304 7 247 0.0 0.0 0.00 0.05 0.05 98 1017.7
20210413114257 7 251 0.0 0.0 0.00 0.05 0.05 98 1017.6
20210413113255 7 255 0.0 0.0 0.00 0.05 0.05 98 1017.4
20210413113048 7 240 0.0 1.6 0.00 0.05 0.05 98 1017.4